Change the Weather History Date:

Friday, November 9, 2012

  Actual Average Record
Temperature  
Mean Temperature 55 °F 59 °F  
Max Temperature 64 °F 70 °F 82 °F (1978)
Min Temperature 45 °F 49 °F 26 °F (1945)
Degree Days  
Heating Degree Days 10 6  
Month to date heating degree days 10 45  
Since 1 July heating degree days 29 84  
Cooling Degree Days 0 1  
Month to date cooling degree days 27 10  
Year to date cooling degree days 4031 3566  
Growing Degree Days 6 (Base 50)    
Moisture  
Dew Point 28 °F    
Average Humidity 37    
Maximum Humidity 56    
Minimum Humidity 17    
Precipitation  
Precipitation 0.00 in 0.01 in 0.15 in (1939)
Month to date precipitation T 0.10  
Year to date precipitation 4.82 3.43  
Snow  
Snow 0.00 in 0.00 in 0.00 in ()
Month to date snowfall 0.0 0.0  
Since 1 July snowfall T 0.0  
Since 1 September snowfall T 0.0  
Snow Depth 0.00 in    
Sea Level Pressure  
Sea Level Pressure 29.64 in    
Wind  
Wind Speed 17 mph (SW)    
Max Wind Speed 35 mph    
Max Gust Speed 47 mph    
Visibility 10 miles    
Events      
T = Trace of Precipitation, MM = Missing Value Source: NWS Daily Summary

Daily Weather History Graph

Daily Weather History Graph

Search for Another Location

Airport or City:

Trip Planner

Search our weather history database for the weather conditions in past years. The results will help you decide how hot, cold, wet, or windy it might be!

Date:

Astronomy

Nov. 09, 2012 Rise Set
Actual Time 6:11 AM PST 4:36 PM PST
Civil Twilight 5:44 AM PST 5:03 PM PST
Nautical Twilight 5:14 AM PST 5:34 PM PST
Astronomical Twilight 4:43 AM PST 6:04 PM PST
Moon 1:23 AM PST (11/9) 1:45 PM PST (11/9)
Length of Visible Light 11h 19m
Length of Day
10h 25m
Waning Crescent, 22% of the Moon is Illuminated
Nov 9
Waning Crescent
Nov 13
New
Nov 20
First Quarter
Nov 28
Full
Dec 6
Last Quarter

Hourly Weather History & Observations

Time (PST) Temp. Windchill Dew Point Humidity Pressure Visibility Wind Dir Wind Speed Gust Speed Precip Events Conditions
12:56 AM 62.1 °F - 46.0 °F 56% 29.59 in 10.0 mi South 16.1 mph 24.2 mph N/A   Scattered Clouds
1:56 AM 61.0 °F - 45.0 °F 56% 29.60 in 10.0 mi SSW 16.1 mph 24.2 mph N/A   Scattered Clouds
2:56 AM 61.0 °F - 44.1 °F 54% 29.60 in 10.0 mi SSW 15.0 mph 25.3 mph N/A   Scattered Clouds
3:56 AM 61.0 °F - 42.1 °F 50% 29.60 in 10.0 mi SSW 19.6 mph 27.6 mph N/A   Scattered Clouds
4:56 AM 59.0 °F - 42.1 °F 53% 29.58 in 10.0 mi South 11.5 mph - N/A   Mostly Cloudy
5:56 AM 57.9 °F - 41.0 °F 53% 29.59 in 10.0 mi SSW 18.4 mph 25.3 mph N/A   Mostly Cloudy
6:19 AM 57.2 °F - 41.0 °F 55% 29.64 in 10.0 mi SSW 15.0 mph 25.3 mph N/A   Mostly Cloudy
6:56 AM 57.9 °F - 41.0 °F 53% 29.61 in 10.0 mi SW 15.0 mph 24.2 mph N/A   Mostly Cloudy
7:56 AM 57.0 °F - 36.0 °F 45% 29.62 in 10.0 mi SW 29.9 mph 40.3 mph N/A   Mostly Cloudy
8:56 AM 57.0 °F - 33.1 °F 40% 29.63 in 10.0 mi SSW 25.3 mph 39.1 mph N/A   Mostly Cloudy
9:56 AM 55.9 °F - 28.9 °F 36% 29.65 in 10.0 mi SSW 18.4 mph 31.1 mph N/A   Mostly Cloudy
10:56 AM 57.0 °F - 23.0 °F 27% 29.66 in 10.0 mi SSW 23.0 mph 41.4 mph N/A   Mostly Cloudy
11:56 AM 59.0 °F - 24.1 °F 26% 29.62 in 10.0 mi SSW 19.6 mph 29.9 mph N/A   Scattered Clouds
12:56 PM 60.1 °F - 19.9 °F 21% 29.61 in 10.0 mi SSW 20.7 mph 31.1 mph N/A   Scattered Clouds
1:56 PM 60.1 °F - 15.1 °F 17% 29.60 in 10.0 mi SSW 23.0 mph 35.7 mph N/A   Scattered Clouds
2:56 PM 59.0 °F - 15.1 °F 18% 29.60 in 10.0 mi SSW 18.4 mph 29.9 mph N/A   Scattered Clouds
3:56 PM 57.9 °F - 12.9 °F 17% 29.61 in 10.0 mi SSW 16.1 mph 24.2 mph N/A   Scattered Clouds
4:56 PM 55.9 °F - 12.0 °F 18% 29.62 in 10.0 mi SSW 17.3 mph 26.5 mph N/A   Scattered Clouds
5:56 PM 54.0 °F - 12.9 °F 20% 29.65 in 10.0 mi SW 17.3 mph 32.2 mph N/A   Partly Cloudy
6:56 PM 53.1 °F - 15.1 °F 22% 29.65 in 10.0 mi SW 18.4 mph 32.2 mph N/A   Partly Cloudy
7:56 PM 51.1 °F - 16.0 °F 25% 29.67 in 10.0 mi WSW 17.3 mph 24.2 mph N/A   Partly Cloudy
8:56 PM 50.0 °F - 18.0 °F 28% 29.70 in 10.0 mi WSW 11.5 mph - N/A   Scattered Clouds
9:56 PM 48.9 °F - 19.9 °F 32% 29.73 in 10.0 mi West 8.1 mph 17.3 mph N/A   Scattered Clouds
10:56 PM 46.0 °F 41.9 °F 28.9 °F 51% 29.75 in 10.0 mi NW 8.1 mph - N/A   Partly Cloudy
11:56 PM 45.0 °F 43.5 °F 27.0 °F 49% 29.75 in 10.0 mi West 3.5 mph - N/A   Partly Cloudy